GFSCGP_sfc_temp_198.txt.gz
Temp
53 46 42 49 53 54 49 48 47 50 52 48 48 50 54 59 58 57 59 60 62 64 68 70 71 71 70 70 70 70 70 70 68 65 64 64 65 65 66 66 67 69 69 69
47 41 53 57 56 53 49 46 44 49 53 47 46 47 52 56 56 57 58 60 61 62 64 67 68 68 68 68 68 69 69 69 68 67 66 66 66 66 66 66 65 66 67 68
44 49 55 52 51 50 48 46 47 46 49 49 44 42 47 53 56 59 61 61 61 61 61 62 63 62 64 64 65 66 67 68 68 69 68 66 66 65 64 64 64 66 66 66
46 53 50 46 47 50 44 53 52 48 42 34 44 30 44 51 52 55 56 55 57 58 58 60 60 60 61 61 61 62 65 66 67 67 66 64 62 61 63 64 65 66 67 66
43 45 45 44 47 52 46 50 48 46 40 37 37 32 41 46 48 52 53 54 56 56 57 56 57 58 58 57 55 57 61 62 64 63 63 62 62 63 64 64 64 65 65 66
46 51 49 49 52 52 52 47 46 44 39 24 38 37 37 43 48 49 52 53 55 54 54 56 56 57 56 55 55 56 58 58 61 61 61 61 61 62 61 61 61 62 63 63
43 43 48 50 45 48 47 41 27 25 25 23 40 36 42 49 50 52 52 53 53 55 54 55 53 53 54 52 53 55 55 55 56 56 56 58 59 60 60 59 58 58 58 58
32 29 42 48 45 41 42 42 30 19 22 27 36 30 40 50 53 55 55 52 54 54 54 53 53 52 51 52 52 52 52 52 54 54 54 55 55 56 56 56 56 55 54 55
36 36 47 48 50 49 41 35 44 34 25 23 32 39 48 51 51 51 49 52 51 54 54 53 52 52 51 50 50 51 51 51 51 52 52 52 52 53 53 53 53 52 52 55
43 32 43 45 47 47 44 48 34 32 19 19 30 32 36 44 47 51 49 49 51 52 53 54 52 51 51 50 50 50 51 49 50 50 50 50 49 50 50 50 49 49 50 50
44 39 34 42 39 38 39 38 41 40 32 26 25 30 45 47 48 48 49 50 49 48 51 53 53 52 50 50 49 48 48 48 48 48 48 47 47 48 48 47 47 47 48 49
44 39 29 35 41 45 46 41 42 30 29 31 31 30 48 49 49 51 50 52 49 50 52 53 52 51 50 49 48 48 47 47 47 47 47 46 46 47 46 46 46 46 46 48
44 34 26 29 36 40 38 42 44 43 37 29 25 31 50 50 48 50 50 51 53 53 50 53 52 50 49 48 48 47 46 45 46 46 45 44 44 44 44 44 45 46 45 46
48 36 33 28 33 39 33 39 43 41 32 32 33 36 43 46 48 50 51 50 52 52 54 53 52 51 50 49 48 47 46 46 44 44 44 43 43 44 44 44 44 44 45 44
44 29 33 39 38 39 36 37 39 38 39 32 38 38 45 47 48 48 51 53 52 53 54 53 53 51 50 49 48 47 45 44 44 43 43 42 42 43 43 42 42 42 42 43
41 27 32 26 37 37 31 37 40 40 41 40 40 39 50 49 50 49 52 52 52 53 53 54 54 53 51 50 48 48 46 43 43 42 41 41 41 41 40 40 40 41 41 41
36 33 29 24 33 30 26 34 38 39 43 41 35 43 48 47 49 50 50 51 51 52 53 53 53 52 51 49 49 47 45 43 41 41 40 40 39 38 38 38 38 37 37 37
35 32 30 22 22 20 34 44 43 40 43 45 45 47 49 49 51 50 52 51 53 53 52 53 52 52 52 49 47 46 43 41 39 39 38 37 36 35 34 35 34 34 34 33
42 36 29 26 22 28 33 39 40 37 37 46 45 48 50 49 46 46 52 52 51 52 52 51 50 49 49 49 45 42 39 37 36 35 34 33 33 32 31 31 31 30 30 30
38 39 31 28 22 19 34 44 45 44 28 46 48 47 47 46 38 44 51 50 49 48 48 44 42 42 43 41 39 37 35 34 34 33 32 31 31 31 30 30 30 29 30 31
29 30 28 27 25 26 38 41 45 27 32 46 47 48 48 43 45 46 47 47 45 45 43 39 38 36 35 36 36 34 33 32 31 30 29 29 29 30 29 28 28 28 28 30
28 25 25 23 23 20 43 39 36 43 43 45 43 44 42 42 42 43 44 43 44 43 36 34 33 31 32 33 34 32 28 28 28 28 27 25 25 28 27 25 26 27 27 27
27 34 26 30 29 40 43 42 44 45 45 42 43 43 44 42 40 40 41 40 40 40 35 33 30 28 27 29 30 26 25 26 24 22 21 21 23 25 26 26 25 25 26 27
32 37 30 33 37 39 39 40 42 43 43 44 43 43 42 41 40 37 36 36 35 33 31 29 27 24 22 22 23 21 22 21 20 19 19 20 21 24 24 24 25 24 24 24
33 36 30 30 34 37 40 39 41 40 40 40 38 40 39 38 37 36 35 35 33 31 28 26 24 22 18 18 16 15 17 17 19 18 19 19 22 22 22 22 23 24 24 24
34 33 31 29 39 39 40 38 39 38 37 38 37 36 35 36 36 35 33 32 30 25 23 22 20 17 14 13 11 10 10 15 18 18 19 20 20 20 21 21 21 27 26 27

GFSCGP_sfc_temp_204.txt.gz
Temp
48 42 37 42 46 47 44 43 39 41 48 45 44 45 49 53 51 51 52 53 55 57 59 63 62 62 63 64 63 65 64 64 64 61 60 60 62 61 61 61 63 63 65 64
43 37 46 51 50 46 45 40 39 43 46 45 41 43 48 49 50 54 54 54 54 53 56 58 61 59 60 61 60 61 62 63 65 66 62 62 61 60 61 62 63 63 63 64
39 45 50 48 46 45 43 41 41 41 43 44 39 39 42 46 47 50 52 52 54 55 55 56 56 56 55 55 54 57 59 61 62 62 61 60 60 59 59 60 61 63 63 64
43 49 47 45 44 47 40 48 48 43 39 33 40 29 38 43 46 49 50 49 50 50 52 53 52 49 50 51 52 54 57 58 61 61 60 59 61 60 59 60 61 62 63 63
40 42 43 43 45 49 43 48 47 42 38 36 32 30 36 40 44 48 48 49 49 50 51 50 50 52 49 50 49 51 54 56 57 58 58 57 57 58 58 59 60 60 60 61
41 48 47 46 48 49 49 45 43 41 34 21 32 32 30 39 46 44 45 45 50 50 49 49 49 50 49 49 49 50 51 51 52 54 55 56 55 57 56 57 57 56 55 55
39 40 46 49 43 46 45 39 24 22 18 21 32 29 33 44 47 49 49 48 48 50 49 49 48 48 48 47 48 49 49 48 49 50 50 53 55 56 56 55 54 53 52 52
29 27 41 46 43 40 40 40 28 19 20 26 33 28 37 44 48 50 51 51 50 48 48 47 47 48 48 47 48 48 48 49 49 49 49 49 50 50 51 52 51 51 50 50
30 32 42 44 47 46 39 34 42 30 20 21 28 34 43 45 44 45 46 48 46 48 48 48 47 48 47 47 48 48 48 47 47 48 48 48 49 49 49 49 49 48 48 50
39 30 39 41 45 44 41 45 32 28 15 16 26 27 32 37 42 43 44 45 45 46 47 48 48 48 47 46 46 46 46 46 46 46 46 46 46 47 47 47 46 46 46 47
41 36 33 40 37 37 37 36 38 36 29 23 21 27 38 41 42 42 43 46 46 46 47 48 48 48 47 46 45 45 45 45 44 45 45 44 44 45 45 44 44 45 45 45
43 36 27 33 39 43 42 38 38 29 26 27 29 28 43 42 43 44 45 48 47 46 47 47 47 47 46 45 45 45 44 44 44 44 44 44 44 43 43 42 43 44 44 44
41 32 25 27 35 38 36 39 42 38 34 27 24 28 44 42 43 45 45 45 48 46 46 48 47 46 45 45 44 44 43 43 44 43 43 42 42 42 42 42 42 43 43 43
42 32 30 28 32 35 33 37 40 40 28 29 31 32 38 41 42 43 44 46 48 49 50 49 47 46 45 45 44 44 43 43 43 42 42 41 41 41 41 42 42 42 42 41
40 30 32 34 35 36 34 36 38 36 38 31 37 35 40 44 43 44 46 46 47 49 49 49 49 47 46 46 45 44 44 43 42 41 41 41 41 41 41 40 41 41 41 40
39 30 32 31 34 34 30 34 36 38 39 38 38 35 45 45 47 42 46 46 46 47 48 48 48 48 48 48 47 47 45 43 41 41 41 40 40 39 39 39 38 38 38 38
34 31 28 25 31 30 26 33 35 36 40 40 34 42 43 44 45 47 46 47 47 47 48 48 49 48 47 46 47 46 46 42 41 40 40 39 38 37 37 37 37 36 36 36
32 29 29 25 24 21 33 39 42 38 41 42 43 42 46 48 50 47 47 46 47 47 48 48 46 46 46 45 44 43 43 41 39 39 38 38 36 36 35 35 35 34 34 34
38 32 26 23 23 27 31 35 34 34 36 44 42 45 46 44 42 44 47 46 47 47 47 45 44 44 42 41 40 39 39 38 37 36 36 35 34 33 33 32 32 31 31 31
35 37 29 21 21 12 31 37 40 41 29 42 45 44 43 41 34 43 47 46 45 45 43 43 41 40 38 37 35 36 37 35 34 34 34 33 33 32 31 31 30 30 30 31
27 29 26 26 23 21 34 38 41 26 31 41 42 44 40 38 44 45 45 44 43 43 42 40 37 38 36 34 34 35 34 34 33 32 31 30 30 30 30 29 28 29 29 30
25 24 26 27 23 22 37 35 35 42 39 40 38 41 40 41 42 41 42 42 42 41 37 36 37 35 33 31 32 32 32 30 29 28 28 26 26 28 28 26 25 26 28 28
24 32 27 30 29 37 37 36 41 43 42 41 41 42 42 40 39 40 39 39 39 36 37 36 33 32 29 28 28 27 28 26 24 22 21 21 23 24 25 25 25 25 26 25
31 36 30 31 35 37 38 40 41 41 41 40 39 40 38 39 39 38 37 36 36 35 35 32 30 26 26 20 22 20 23 21 19 19 18 19 20 20 22 23 24 23 23 25
32 33 30 29 32 35 38 40 42 42 37 38 38 37 36 34 35 36 34 34 33 33 30 26 25 23 20 16 14 13 15 16 17 17 18 18 19 18 19 21 21 24 25 25
32 33 32 31 36 39 40 41 41 38 38 38 36 34 35 36 36 35 33 33 32 27 22 21 20 18 16 13 11 7 7 14 16 16 17 17 19 17 20 22 23 29 29 29

GFSCGP_sfc_temp_210.txt.gz
Temp
48 41 37 40 43 43 43 41 38 39 44 43 42 44 48 49 46 48 50 51 52 54 56 58 58 57 58 59 59 60 60 61 61 59 59 58 61 61 62 62 62 62 62 62
42 37 44 47 47 45 42 39 37 40 44 43 38 42 46 48 49 51 52 52 53 51 53 56 55 54 56 56 56 57 59 60 61 61 60 60 60 60 60 61 60 61 61 61
38 43 48 46 44 43 39 39 38 40 41 40 37 39 42 45 45 48 50 50 51 53 53 54 56 54 53 53 51 53 54 56 57 60 59 58 59 58 58 58 59 60 61 61
42 47 45 43 42 44 38 45 44 42 38 33 37 29 38 39 43 46 49 48 49 48 48 51 51 49 48 49 49 51 53 54 56 56 57 57 59 58 57 59 59 60 61 60
37 40 42 40 43 47 42 46 44 40 35 31 30 29 35 38 42 49 44 45 47 47 47 47 48 48 45 47 47 48 50 51 52 52 53 54 55 56 56 57 57 58 58 59
40 46 45 45 46 48 47 43 41 38 34 23 31 32 30 39 44 42 43 43 44 44 45 46 46 47 47 46 47 48 49 48 49 50 50 51 51 52 53 54 55 55 54 53
37 38 44 46 42 45 43 39 27 26 25 24 30 29 34 42 45 45 47 44 44 44 45 45 46 47 47 46 46 48 47 47 47 48 48 48 49 51 52 53 53 53 51 51
31 28 40 45 42 40 39 39 29 21 19 25 31 29 36 42 45 46 49 49 46 45 46 46 46 46 46 46 46 46 46 47 46 47 47 47 47 48 49 50 51 52 50 49
31 33 41 43 45 45 38 33 40 30 22 22 27 32 41 41 42 42 45 47 47 46 46 45 45 46 46 46 46 46 46 46 46 46 45 46 46 47 46 46 47 46 47 49
36 31 38 41 44 42 39 43 33 29 17 16 25 27 32 39 41 41 43 45 46 47 46 46 46 46 46 45 45 44 45 45 44 44 44 44 44 44 45 45 45 45 45 45
39 34 34 40 36 35 36 35 37 37 31 23 20 28 37 39 42 42 44 45 45 46 47 47 46 46 45 44 43 43 43 44 44 44 43 43 42 43 43 43 43 43 43 43
40 34 29 33 38 41 39 36 37 29 25 26 28 28 41 41 41 42 44 45 44 45 47 46 47 46 45 44 43 43 43 42 43 43 42 42 42 41 41 41 41 42 41 42
40 33 22 25 33 37 34 36 38 36 33 26 24 29 42 41 40 41 43 44 45 44 45 47 46 46 45 45 45 44 43 43 42 42 42 41 41 41 40 40 40 41 41 40
41 33 29 24 29 32 32 35 38 37 27 31 30 32 37 41 41 41 43 44 45 46 47 47 47 46 45 45 45 45 45 43 42 41 40 40 40 40 40 40 40 40 40 39
37 28 28 31 31 32 31 31 36 35 37 31 37 34 39 40 41 42 41 43 44 46 47 48 47 46 46 46 45 45 44 43 42 41 40 40 40 40 39 39 38 38 38 38
35 18 25 21 32 31 30 33 33 37 38 37 36 33 41 42 42 41 44 43 44 46 47 47 48 47 46 46 46 46 45 44 42 41 40 40 39 38 38 38 37 37 37 36
30 21 25 15 27 26 22 30 33 35 40 39 33 41 42 43 43 43 43 44 45 45 45 46 46 47 46 46 46 44 44 42 41 40 40 39 38 37 37 37 36 35 35 35
30 25 26 17 15 9 29 34 36 34 38 40 40 40 41 45 48 45 45 45 46 46 46 46 45 45 44 43 42 41 40 40 39 38 38 37 36 36 35 35 34 34 33 33
35 28 18 15 15 23 31 33 32 32 34 41 40 43 44 41 39 42 46 46 48 48 48 46 44 43 40 40 38 38 37 36 36 36 35 35 35 34 34 33 33 32 32 31
32 34 28 17 16 14 29 34 35 39 28 41 41 42 42 38 33 42 49 45 45 44 43 42 40 38 38 35 35 36 35 35 34 33 33 33 33 33 33 32 31 30 31 31
25 27 24 24 21 21 34 35 37 25 31 40 41 42 38 37 45 44 43 42 42 42 41 38 37 37 36 34 35 35 34 33 32 32 31 30 31 31 31 30 28 29 29 29
20 20 19 23 21 18 34 32 32 41 40 40 39 38 37 39 40 40 40 39 38 37 36 36 36 35 32 32 34 33 33 30 29 28 27 24 24 28 28 27 25 26 28 27
20 28 22 24 25 35 34 35 39 39 39 38 39 41 39 37 37 37 37 36 37 37 36 35 35 34 31 30 30 29 29 27 24 22 20 20 22 24 24 25 24 24 25 27
27 31 27 29 35 34 35 37 37 39 39 41 39 38 38 37 36 37 37 35 35 35 35 33 32 30 32 25 24 22 24 21 20 19 18 18 20 19 20 22 23 23 23 23
29 31 26 27 34 33 37 36 38 39 39 38 39 37 39 39 35 34 35 34 33 33 30 26 25 24 22 18 16 13 16 16 18 17 16 17 18 17 17 19 19 20 20 23
30 30 29 28 34 37 37 40 39 37 38 38 37 36 38 35 36 34 34 33 33 26 22 22 20 19 17 14 13 9 6 13 15 15 15 15 16 15 17 20 19 30 30 30

GFSCGP_sfc_temp_216.txt.gz
Temp
52 45 38 50 52 52 52 50 50 50 52 53 56 58 62 63 61 64 67 69 70 70 73 73 72 73 74 75 75 75 74 75 75 73 71 70 69 72 73 74 74 75 75 75
45 42 49 49 51 51 50 47 47 47 50 51 51 54 61 60 62 65 67 68 70 71 71 71 71 71 72 72 72 72 72 73 73 73 72 73 73 74 74 75 74 75 75 75
44 47 51 49 49 48 48 47 46 46 48 49 48 52 56 59 59 61 63 66 68 68 70 71 68 70 68 68 66 66 67 68 70 71 72 70 70 69 69 70 71 72 73 73
46 50 48 45 45 50 43 51 50 47 46 44 47 45 51 54 55 56 62 64 66 67 65 67 67 68 68 65 62 63 63 64 64 65 67 68 69 68 72 71 73 73 73 73
43 45 44 43 45 51 45 50 48 46 45 44 45 45 54 49 54 58 58 59 61 62 62 63 63 64 62 60 62 62 63 61 61 62 65 67 66 68 69 69 69 70 71 71
46 51 49 48 49 51 51 48 47 45 44 35 43 43 50 52 54 54 54 56 54 55 56 57 57 58 58 58 59 60 61 60 59 61 61 62 63 64 64 65 65 67 68 67
43 44 48 50 45 49 49 44 32 31 32 34 39 38 48 53 56 54 55 56 55 54 54 55 55 57 57 57 58 59 60 58 59 59 59 59 60 61 61 63 64 64 65 64
36 33 44 49 47 44 45 45 34 26 29 34 38 36 47 54 54 53 53 54 54 54 54 55 55 57 57 56 57 58 58 57 57 57 57 58 58 60 60 59 61 63 63 61
34 36 46 47 49 49 42 40 47 33 28 29 39 45 50 55 52 51 50 51 53 55 55 55 55 56 57 57 57 57 57 56 56 56 57 56 57 57 57 57 58 60 59 57
40 33 43 45 49 49 46 48 32 33 25 25 36 37 43 50 51 52 53 51 53 53 53 54 56 55 56 56 55 55 56 56 55 55 55 55 54 55 56 56 55 55 55 55
41 37 37 44 41 41 42 40 41 39 35 30 29 39 52 51 50 50 52 52 53 54 54 55 56 57 56 56 56 56 55 54 54 54 54 54 53 53 53 54 54 53 54 54
37 35 31 37 43 45 46 43 43 34 29 35 32 39 56 52 50 50 52 53 54 54 55 56 56 56 55 56 56 57 56 56 54 54 53 53 52 52 53 52 52 52 52 52
37 32 29 30 36 42 39 42 44 42 38 31 30 39 51 52 52 51 51 53 54 55 55 55 55 55 56 56 56 55 55 55 54 53 53 52 52 52 52 51 51 52 52 51
42 33 30 28 30 34 32 37 40 41 32 35 36 41 49 52 51 55 55 54 54 54 55 56 55 56 56 55 56 56 56 55 53 52 52 52 51 51 51 50 50 50 50 50
41 30 32 36 37 36 36 35 36 34 39 32 41 41 47 51 51 54 57 53 51 52 53 54 55 57 57 56 56 55 56 54 52 51 50 51 50 49 49 48 48 48 48 47
39 29 30 27 35 34 30 37 38 39 40 40 41 40 52 54 55 53 53 51 51 54 55 55 55 55 54 55 56 54 55 53 51 50 50 49 48 47 47 47 46 46 46 46
34 29 26 26 29 29 26 34 38 40 43 43 38 46 52 50 50 51 53 53 52 54 54 53 55 55 54 54 53 53 53 50 49 49 48 47 47 46 45 45 44 44 44 44
32 30 29 25 24 18 36 41 40 38 42 44 44 47 50 50 52 54 55 54 54 54 54 54 56 58 56 54 53 51 49 48 47 47 46 45 45 45 44 43 43 43 43 42
39 35 27 23 22 27 36 41 37 36 40 46 44 48 50 49 48 50 55 56 55 56 58 58 56 57 56 52 51 48 45 45 45 44 44 43 42 41 40 40 41 40 40 39
35 38 30 22 20 18 35 42 43 42 31 47 46 46 46 45 41 50 51 52 52 53 53 52 51 50 50 47 45 45 44 44 44 42 40 39 39 39 40 40 38 37 38 36
24 27 24 25 22 27 40 44 44 28 34 46 46 47 45 43 48 52 52 50 50 48 46 48 47 47 46 43 43 42 43 43 40 38 36 35 36 36 39 38 35 35 35 34
25 22 23 26 22 19 43 38 35 44 46 46 47 48 46 47 46 46 48 47 47 47 45 42 42 40 39 40 41 40 41 37 36 35 34 32 32 33 34 33 32 32 33 32
26 35 30 30 31 43 42 45 47 45 45 46 45 47 46 44 46 47 45 45 44 44 40 39 40 37 37 37 38 37 37 34 32 30 28 29 29 30 31 32 31 32 32 31
31 36 32 31 40 41 42 44 44 46 45 47 46 45 44 43 44 41 40 40 38 39 38 36 36 35 35 34 32 34 33 31 29 29 28 27 28 29 29 31 32 33 32 31
36 35 32 32 39 41 43 43 45 44 44 41 42 41 43 43 40 40 40 39 39 37 35 33 33 32 32 31 30 29 29 28 29 27 26 28 29 29 29 30 31 31 31 32
35 36 34 33 43 43 44 47 45 41 41 43 41 41 41 41 41 41 40 39 38 34 32 32 31 30 32 30 28 26 24 25 27 27 27 29 29 29 30 30 30 31 31 31

GFSCGP_sfc_temp_222.txt.gz
Temp
47 40 35 38 42 43 41 41 42 47 53 51 52 53 57 60 58 57 62 67 67 68 71 72 72 72 72 72 72 72 71 70 70 66 66 70 69 68 69 71 70 70 70 69
45 39 42 44 43 42 41 38 40 47 51 50 51 51 55 58 57 60 61 62 65 67 68 70 69 69 69 69 70 70 71 71 70 68 67 67 68 69 67 68 68 69 69 69
42 43 46 43 38 38 39 37 39 45 49 49 46 46 51 56 58 61 59 61 63 65 65 66 66 64 66 65 65 67 68 68 68 69 68 67 67 64 63 64 66 67 69 69
44 50 44 42 38 39 35 46 47 46 44 37 46 36 49 52 53 55 57 58 58 59 63 65 64 63 63 60 60 62 62 62 62 62 64 64 62 61 63 64 66 67 69 68
42 45 42 40 42 44 39 47 45 45 43 40 41 37 45 49 50 50 51 54 53 54 55 56 59 61 57 57 57 58 59 59 59 60 61 60 61 61 62 61 62 63 65 68
45 50 49 47 48 47 50 46 45 42 39 29 41 40 40 45 47 48 51 52 54 52 51 53 54 56 54 54 55 56 57 56 57 58 58 58 57 57 57 57 57 58 60 61
43 44 47 49 44 46 45 41 29 26 27 28 40 37 42 49 50 50 50 51 52 50 51 51 50 52 52 51 53 55 56 55 56 56 56 56 56 56 56 56 55 56 57 58
34 29 43 49 46 42 42 41 29 24 25 28 37 31 42 52 52 52 52 51 52 51 52 52 52 53 53 53 53 53 54 54 55 55 54 55 55 54 54 55 55 55 54 54
35 36 46 47 49 46 41 36 43 32 29 26 33 40 48 49 50 51 51 51 50 52 52 52 53 53 53 53 54 54 53 53 53 53 53 52 53 53 52 53 53 52 52 54
40 33 43 45 46 45 43 46 33 30 20 21 30 31 37 43 45 50 50 49 50 50 51 52 52 53 52 52 51 52 53 52 52 52 52 52 51 52 51 51 50 51 51 51
40 38 37 42 39 38 39 37 40 38 33 27 25 30 42 44 45 46 49 50 50 51 52 52 52 53 52 51 51 51 51 50 50 51 50 49 48 49 49 49 49 49 49 50
37 35 31 36 42 45 42 40 41 30 27 31 31 30 48 47 48 49 50 52 51 50 52 53 53 53 52 52 52 51 51 50 51 51 50 49 49 49 48 48 48 48 48 48
38 31 27 26 36 41 39 42 40 37 34 29 26 32 49 49 49 50 49 50 52 51 51 52 52 51 51 51 51 52 52 51 51 50 50 49 49 49 48 48 48 49 48 47
43 33 29 24 29 36 31 36 40 37 27 30 31 35 45 46 47 50 48 49 50 51 51 51 51 51 51 52 52 52 52 52 50 49 49 48 48 48 48 47 47 47 47 46
40 24 29 33 37 37 33 34 34 32 35 29 34 34 40 46 48 47 49 49 50 51 51 51 51 50 51 51 51 52 52 51 50 49 48 47 47 47 47 46 46 45 45 44
40 23 27 22 33 32 28 33 35 36 35 34 35 34 46 47 47 47 49 49 48 50 51 52 53 52 52 52 51 52 51 50 49 48 47 47 46 45 45 44 44 43 42 42
32 22 18 14 27 24 16 28 33 36 40 38 33 40 44 44 46 46 46 47 48 49 50 50 51 52 52 52 53 51 51 49 47 47 46 46 45 43 42 42 42 41 41 41
28 22 20 13 15 5 29 39 39 36 38 40 41 42 45 45 44 46 47 47 47 48 48 49 49 51 52 52 51 51 49 47 46 45 44 44 43 41 40 40 39 39 39 39
38 30 15 11 8 22 30 35 34 32 33 41 40 42 43 44 42 41 49 47 46 47 47 47 47 47 48 49 50 48 45 44 43 43 42 41 41 38 37 36 37 36 36 35
33 35 24 12 7 4 29 35 41 40 22 41 42 42 41 42 33 38 45 46 46 46 45 44 44 44 43 44 45 44 42 40 40 39 38 37 37 37 36 35 34 34 34 33
20 26 21 19 18 20 35 37 41 18 27 40 42 41 40 38 40 43 46 45 46 44 44 43 40 39 39 37 39 39 38 38 37 36 35 35 36 35 36 34 32 32 31 31
19 16 17 16 13 13 39 36 31 37 41 40 40 41 42 42 43 43 44 44 44 43 41 37 35 34 34 34 35 36 36 35 34 35 34 32 31 33 32 30 29 30 30 29
21 29 23 25 24 38 39 39 42 42 41 41 41 42 43 41 41 42 41 41 41 39 36 35 33 33 33 33 33 33 33 34 33 31 30 29 30 30 30 31 29 29 29 30
29 34 26 29 35 38 39 41 42 42 41 43 43 42 41 40 39 37 36 36 36 36 35 34 33 32 32 30 29 29 31 31 33 31 28 27 28 28 29 30 30 29 28 30
31 32 27 27 34 34 39 41 42 42 41 38 38 38 39 38 36 36 36 36 35 35 35 32 28 28 28 26 25 24 26 28 29 28 26 27 28 28 26 26 25 27 29 32
34 33 29 28 38 38 39 41 41 39 39 39 37 36 37 36 36 36 35 35 35 31 28 27 25 25 26 28 26 25 26 29 29 27 26 26 26 26 26 26 25 33 32 33

GFSCGP_sfc_temp_225.txt.gz
Temp
46 37 34 39 42 42 41 39 38 45 49 47 46 51 55 57 54 55 57 58 61 63 65 67 68 68 67 67 67 67 66 66 66 63 62 62 63 67 68 69 70 70 68 67
42 36 41 45 46 43 40 37 35 43 49 48 46 49 54 54 54 56 59 61 62 64 65 65 65 65 65 65 66 66 68 67 68 67 64 66 68 68 68 69 69 68 67 68
38 41 45 42 41 39 39 36 36 38 47 48 46 44 50 55 57 58 61 60 60 61 62 63 65 62 61 60 61 63 64 66 66 66 66 66 67 65 64 65 66 68 69 69
40 45 42 40 38 40 35 43 45 43 41 35 45 32 47 50 52 52 50 50 51 52 55 59 62 60 60 58 60 60 60 61 61 62 63 64 63 60 61 62 63 65 67 67
37 40 39 37 39 42 37 44 43 42 39 38 40 35 40 49 47 49 50 51 50 50 52 53 53 55 55 58 59 58 57 57 58 59 60 59 60 63 62 62 63 64 65 66
40 47 44 43 44 44 47 43 42 40 38 29 35 36 34 42 46 47 49 51 52 51 51 51 52 53 52 53 54 54 55 55 56 56 57 57 57 57 56 56 56 57 57 58
38 39 44 47 40 43 43 39 26 23 24 27 36 35 39 47 48 49 49 50 50 51 50 50 51 50 50 49 52 53 53 53 54 54 54 54 54 55 54 54 53 54 55 55
29 25 39 45 41 39 38 38 26 18 22 27 35 30 38 47 50 50 50 50 51 50 51 50 50 51 51 50 51 52 52 52 52 52 52 52 53 52 52 52 52 52 52 52
33 32 42 44 45 43 38 34 39 29 24 24 31 38 45 47 47 48 48 49 48 49 50 49 50 51 50 51 51 52 52 51 52 52 51 51 52 52 51 51 51 50 51 53
36 31 40 42 44 44 41 44 32 28 16 19 28 32 33 39 43 45 46 46 48 50 50 51 51 51 51 50 50 50 51 51 51 51 51 50 50 50 50 49 49 49 49 50
38 37 36 40 36 34 37 34 37 36 29 25 25 28 43 43 44 44 46 48 48 49 50 50 50 50 50 50 50 50 50 50 49 50 49 48 48 48 48 48 48 48 48 49
37 35 30 30 39 41 40 36 37 27 26 29 30 30 48 45 46 47 47 49 49 50 51 51 52 51 50 50 50 50 49 49 49 49 48 48 48 47 46 46 46 47 46 47
38 30 25 23 34 39 36 39 37 35 32 28 24 29 46 45 45 47 47 47 48 48 49 50 50 50 50 50 50 50 50 50 50 49 48 47 47 46 46 46 46 46 46 46
41 31 28 19 26 34 29 33 35 34 23 27 29 32 40 42 43 43 44 45 47 48 49 49 49 49 49 50 50 50 50 50 49 49 48 47 47 47 47 46 46 45 46 45
38 21 27 31 33 33 31 31 32 30 32 25 31 30 38 41 41 42 43 45 46 46 47 48 48 49 48 49 49 50 50 49 48 47 47 47 47 46 45 45 45 44 43 42
36 18 24 19 31 30 27 31 32 32 32 32 32 31 41 42 43 41 44 44 44 45 46 46 47 48 49 49 50 50 49 48 47 46 46 46 45 44 43 43 43 42 41 41
28 18 11 10 25 21 15 27 31 32 35 34 29 36 40 40 42 41 42 43 44 45 45 45 45 46 46 46 49 48 50 49 46 46 46 44 44 42 42 42 41 40 40 40
24 16 10 10 10 4 27 35 36 33 34 37 37 38 39 40 41 41 43 42 43 44 44 44 44 45 45 45 45 46 46 46 45 44 44 44 42 41 40 40 39 39 38 38
34 27 11 9 -2 18 29 32 31 31 32 37 37 38 39 39 38 38 44 43 42 44 44 43 42 42 42 42 42 42 43 43 42 42 42 41 41 39 37 36 37 37 35 35
32 32 19 4 3 6 28 33 37 37 22 37 39 38 39 38 31 34 43 43 44 43 42 41 39 39 39 38 38 38 39 39 39 39 39 38 38 37 36 36 35 34 34 33
11 26 16 10 9 19 32 36 38 18 26 37 40 40 38 36 38 41 42 43 42 42 42 40 37 36 35 33 33 35 36 36 37 36 36 37 37 36 36 34 33 33 32 32
18 13 14 15 18 13 36 33 30 35 37 38 38 38 39 40 41 41 41 41 41 40 39 37 34 33 33 32 32 34 34 32 32 32 31 31 31 33 34 34 31 31 31 29
18 26 20 22 23 34 37 37 40 39 39 38 37 40 39 39 39 40 39 39 39 38 35 35 33 33 33 32 31 31 31 31 29 28 29 31 31 32 32 32 30 30 30 30
28 32 26 29 33 34 37 39 39 39 39 41 40 40 38 38 37 36 35 35 35 35 35 34 33 32 32 29 28 28 30 28 27 26 27 31 32 30 29 30 30 30 30 29
29 31 26 27 32 33 37 38 39 39 38 37 37 36 38 37 36 35 34 35 35 34 34 32 27 27 26 24 23 23 25 23 25 25 24 25 28 28 27 27 28 29 28 31
32 31 28 29 36 37 38 38 39 37 37 39 35 35 36 35 35 35 34 34 34 32 27 26 24 23 24 21 22 23 26 29 25 23 24 27 28 27 26 26 25 33 33 35

GFSCGP_sfc_temp_231.txt.gz
Temp
44 38 33 39 40 38 40 40 39 41 45 46 45 46 48 50 54 53 55 53 56 57 60 60 61 62 63 63 62 64 63 62 62 58 58 57 59 59 60 60 63 63 63 63
37 35 41 43 43 39 38 39 37 42 47 46 45 45 46 46 48 51 51 50 52 53 56 58 57 60 62 61 61 60 62 62 63 63 60 60 60 60 61 63 64 65 67 67
33 39 45 41 40 37 34 35 37 38 43 44 43 38 40 44 47 54 53 51 50 50 51 53 57 57 59 59 58 60 60 61 62 63 61 61 62 61 62 65 65 67 68 67
35 42 41 41 37 40 34 42 42 39 38 32 39 30 33 38 42 50 51 51 49 49 51 52 54 55 54 56 57 58 59 59 60 61 61 61 61 61 62 65 65 66 66 66
35 37 36 38 37 42 37 42 41 41 35 35 34 32 33 38 38 44 49 50 50 50 50 48 50 53 55 55 55 57 58 58 58 59 60 61 61 61 62 62 63 63 63 63
36 43 39 38 44 43 45 42 41 37 34 27 32 32 31 34 38 41 47 50 49 49 50 50 51 51 51 53 53 52 53 53 53 55 56 58 60 59 58 58 59 59 59 59
35 36 41 42 40 44 41 33 26 22 19 22 33 32 32 37 42 44 46 48 48 48 49 49 49 50 50 50 51 53 53 52 53 54 54 54 55 56 56 56 57 56 55 53
28 25 37 42 37 35 36 35 25 17 20 25 33 28 34 42 45 47 48 48 49 49 48 49 49 49 49 49 50 50 50 50 50 51 50 50 51 51 52 51 50 51 50 50
30 28 39 40 40 39 35 31 37 29 22 24 28 33 41 44 46 45 45 48 47 48 50 49 50 49 49 49 49 49 50 50 50 50 49 49 50 50 50 50 50 49 50 51
35 28 35 39 41 40 37 40 29 28 17 17 26 29 30 38 41 44 44 44 45 48 49 50 50 50 50 49 49 49 49 49 49 49 49 48 48 49 49 49 48 48 48 49
37 35 32 36 32 30 33 32 33 32 29 23 21 27 38 39 42 42 43 45 45 45 46 48 49 50 49 49 49 48 48 49 48 48 47 47 46 46 46 46 46 46 46 47
38 33 23 27 36 37 35 31 33 26 25 28 28 27 43 41 42 44 43 45 45 46 46 46 47 47 48 48 49 48 48 47 47 47 46 46 46 46 45 45 45 45 45 45
38 28 14 23 31 35 32 34 33 32 31 26 23 26 41 41 41 43 42 42 43 44 45 45 47 47 47 47 47 47 47 46 47 47 46 46 45 46 46 45 45 45 44 44
41 31 24 19 25 29 28 32 33 32 23 27 28 27 33 38 39 40 41 42 42 43 43 43 44 44 44 46 46 46 47 47 47 46 46 45 45 45 45 44 44 43 43 42
34 19 24 28 30 31 30 31 31 30 30 25 27 30 36 36 36 36 40 41 42 42 43 42 42 42 43 44 44 44 45 45 45 45 45 45 45 44 44 43 43 42 41 41
32 20 22 18 29 27 25 30 29 31 31 29 29 29 37 36 36 36 39 39 40 41 41 42 42 42 42 42 42 43 43 43 43 43 43 43 42 42 41 41 40 40 39 39
27 18 13 11 21 19 15 25 29 29 29 31 27 33 35 36 39 37 37 39 38 39 40 41 41 40 40 40 40 39 40 41 41 42 43 43 42 41 40 40 39 39 38 38
23 16 11 9 10 6 27 29 30 30 31 33 33 34 35 35 36 38 38 38 38 39 40 40 39 39 39 38 37 36 37 38 38 39 40 41 41 40 40 39 38 37 38 36
31 26 12 11 -2 17 27 29 28 29 28 32 30 33 34 35 34 33 38 38 38 39 40 39 38 38 37 36 35 34 35 35 36 36 37 38 38 38 36 36 36 35 35 34
31 29 19 8 3 4 26 30 33 34 21 32 34 33 35 35 29 31 39 38 40 40 39 39 38 36 35 35 32 33 34 33 33 32 33 34 35 35 35 34 34 35 35 34
16 16 14 11 2 14 30 34 34 18 26 33 36 36 35 34 36 39 38 39 38 38 39 38 35 34 35 33 32 33 33 33 31 32 32 33 34 34 34 33 32 33 32 32
20 15 16 10 3 11 33 32 29 34 34 36 34 35 36 36 38 38 38 38 38 38 37 36 34 35 34 33 32 33 33 32 31 31 31 28 27 31 32 30 28 30 32 31
18 25 20 22 22 34 33 33 36 36 36 35 35 37 36 36 35 36 36 36 37 36 35 35 34 34 33 32 31 29 33 31 28 24 23 24 25 28 29 29 30 31 31 31
25 29 24 26 31 32 34 35 35 37 37 36 36 36 34 35 35 35 34 34 34 35 35 33 33 32 32 31 28 28 29 25 21 22 22 23 26 26 26 28 29 32 32 31
27 29 25 24 30 32 34 34 36 37 36 35 34 35 37 35 35 34 33 34 34 34 33 30 28 29 29 24 25 22 23 20 22 21 21 22 23 25 24 26 28 27 28 33
29 29 27 25 33 34 35 37 38 36 36 37 35 34 35 34 34 34 33 33 33 31 29 26 26 23 27 22 24 22 17 20 21 21 21 21 22 21 23 24 24 33 34 35

GFSCGP_sfc_temp_234.txt.gz
Temp
41 39 34 40 40 39 38 37 34 37 46 43 43 44 46 48 49 49 47 52 55 55 57 59 61 61 61 60 61 61 61 61 61 58 59 58 60 58 59 59 60 61 61 61
35 35 42 45 42 38 35 33 34 40 45 46 44 42 45 46 45 49 49 49 48 51 53 54 58 60 61 60 60 61 62 61 62 62 59 59 58 59 60 61 61 62 62 64
32 38 44 42 40 38 33 32 33 38 43 42 42 37 40 44 45 48 52 51 50 49 49 54 56 56 58 58 58 59 60 62 62 62 61 61 60 60 59 60 61 65 67 67
34 41 38 40 37 39 34 40 36 39 38 33 37 29 33 39 40 43 47 50 46 48 50 50 53 53 53 54 57 58 59 60 60 61 61 61 60 58 60 61 63 65 66 66
35 36 34 36 37 42 36 42 38 39 35 35 33 31 33 38 36 39 43 48 49 48 48 48 49 51 52 53 53 56 57 57 57 58 59 59 60 60 61 61 61 62 62 63
36 41 37 38 43 42 44 40 40 38 34 27 33 33 30 35 37 40 42 44 48 49 49 48 48 50 49 50 51 52 54 54 55 55 56 57 58 60 59 58 58 57 57 58
33 36 39 40 37 41 41 35 24 23 21 25 33 30 32 37 41 41 43 43 46 48 48 49 49 48 48 48 49 51 50 51 51 52 53 52 53 54 55 56 56 55 55 55
27 24 35 41 35 33 35 34 26 18 20 26 33 26 31 42 44 45 45 45 46 47 48 47 47 48 48 49 49 50 49 49 50 51 51 51 52 52 52 53 53 53 52 51
31 27 38 38 39 37 35 30 36 28 23 25 26 32 39 44 44 45 45 45 43 44 45 48 48 48 48 48 48 49 49 48 49 48 49 49 50 50 50 50 50 49 49 50
35 28 34 38 39 38 36 39 29 26 17 16 25 28 29 37 39 42 42 43 44 46 46 47 47 48 49 48 48 49 49 48 48 48 48 48 47 48 48 49 48 48 48 48
37 34 31 34 31 28 32 31 32 31 27 21 19 24 36 38 39 40 41 43 43 44 45 46 47 48 48 48 48 48 48 48 48 48 47 46 46 46 46 46 45 46 45 46
37 31 21 26 34 34 33 29 31 24 24 26 27 25 40 39 41 42 41 43 43 43 44 45 46 46 47 47 47 46 46 46 46 47 45 44 45 45 44 44 44 44 43 44
38 24 12 21 30 34 31 32 32 32 31 25 20 23 39 38 39 41 41 41 42 42 42 42 44 44 44 45 45 45 45 45 46 46 45 45 45 44 43 43 43 43 43 42
40 28 24 18 25 28 27 31 32 31 22 26 26 27 31 35 37 38 39 40 40 41 42 42 42 41 42 42 43 44 44 44 44 45 45 45 45 44 44 43 42 42 41 41
34 22 24 27 28 29 29 30 31 29 29 24 26 28 33 33 34 35 37 39 40 40 41 41 41 41 41 42 42 42 41 42 42 43 43 44 44 43 42 41 41 40 40 39
32 19 22 18 28 27 24 30 29 30 31 28 28 28 34 34 36 34 36 38 38 39 40 41 41 41 41 40 40 40 40 40 39 40 41 42 42 41 41 40 39 39 37 37
27 17 10 11 21 18 14 25 29 28 28 30 27 32 35 34 36 34 36 37 37 38 38 39 39 39 39 38 38 37 37 38 39 39 40 41 41 40 39 39 38 37 36 36
23 12 4 8 9 6 27 27 29 28 29 31 32 33 33 34 33 36 36 36 36 38 39 39 38 38 38 37 36 35 36 36 36 37 37 38 38 39 38 38 37 37 36 35
30 24 5 9 -3 17 28 28 27 29 27 32 31 31 34 33 33 31 38 37 36 37 39 38 37 37 36 35 35 33 35 34 34 34 33 33 34 35 35 35 35 34 34 33
30 28 16 3 4 3 26 30 32 32 22 32 33 33 33 33 28 30 37 37 39 38 38 37 37 36 34 35 33 33 34 33 33 31 31 32 33 34 34 34 33 33 33 33
11 10 8 9 3 14 30 32 34 18 26 32 34 33 33 33 35 37 36 37 36 37 38 37 35 34 34 34 32 33 33 33 32 31 32 32 32 34 33 32 32 32 32 32
19 10 5 4 3 11 32 31 28 33 34 36 34 35 35 36 35 36 37 36 37 36 36 36 34 34 34 33 32 33 33 33 31 30 30 26 26 30 31 29 27 29 30 29
17 24 18 21 21 33 32 32 35 36 36 35 35 35 34 34 34 34 35 35 35 35 35 34 33 33 33 32 31 30 33 31 27 23 23 23 24 27 27 28 28 28 28 31
24 27 22 25 30 30 32 34 35 36 36 37 36 34 34 34 34 34 34 34 34 34 34 33 32 32 31 31 29 29 30 23 21 22 21 22 23 24 25 27 28 28 27 28
25 28 24 23 30 31 33 34 35 36 36 34 34 34 36 34 35 34 33 33 33 33 32 29 27 28 28 24 25 23 23 19 21 20 20 21 22 21 22 25 25 26 25 30
27 27 26 24 34 34 35 36 36 35 36 36 35 33 34 34 34 34 32 33 32 31 26 24 24 22 27 24 24 24 19 20 19 22 22 22 21 19 20 21 24 31 34 35